Location: Central Coast
(33.3208°S, 151.2336°E)
Time: 23:01:37
(UTC+11:00)

OTV 5 (USA 277) - Pass Details

Date: 17 October 2017
Orbit: 404 x 417 km, 43.0° (Epoch: 07 September)

Event Time Altitude Azimuth Distance (km) Brightness Sun altitude
Exits shadow 05:00:05 29° 256° (WSW) 786 ? -15.2°
Maximum altitude 05:01:18 43° 205° (SSW) 591 ? -15.0°
Drops below altitude 10° 05:04:31 10° 131° (SE) 1,479 ? -14.4°
Sets 05:06:41 0° 124° (SE) 2,344 ? -14.0°
